Weather in Khatassy

Russia / Sakha (Yakutia) Republic     61°54′21″N   129°37′52″E
temp.,
°C
wind,
m/s
gust,
m/s
humid.,
%
clouds,
%
prec.,
mm/h
press.,
hPa
HPBL,
m
15 april, thu
thu1500:00−18nnw119947 0.0 10089
03:00−21wnw0010090 0.0 10079
06:00−21sw0010097 0.0 100710
09:00−10sse118929 0.0 1006133
12:00−5ssw128222 0.0 1005354
15:00−3sse228388 0.0 1005406
18:00−3sse2494100 0.3 1006228
21:00−6s229898 0.8 100620
16 april, fri
fri1600:00−10w35946 0.1 100763
03:00−11w239845 0.1 100844
06:00−16wsw1110084 0.0 101013
09:00−5s239296 0.1 1009246
12:00−1sw4683100 0.1 1008824
15:000ssw358792 0.3 1007677
18:00−1s3683100 0.1 1005129
21:00−4sse3889100 0.1 1003143
17 april, sat
sat1700:00−2s61478100 0.0 999464
03:00−2s71595100 0.9 995851
06:00−1ssw71491100 0.5 994648
09:00+1ssw71395100 0.6 993779
12:00+2ssw5119999 0.1 992515
15:00+3s71493100 0.2 989544
18:00−1wnw41295100 4.0 992793
21:00−3w51075100 4.4 997298
18 april, sun
sun1800:00−6sw3687100 0.0 99991
03:00−9wsw4884100 0.1 1001128
06:00−10sw39855 0.0 1004209
09:00−7wsw697399 0.0 10061209
12:00−6wsw6972100 0.1 10081522
15:00−5wsw6973100 0.3 10101531
18:00−5wsw4877100 0.2 1012472
21:00−12sw369044 0.2 101474
19 april, mon
mon1900:00−13sw389370 0.0 1016119
03:00−13sw359589 0.0 101891
06:00−12sw2694100 0.0 1019145
09:00−7w357971 0.0 1020600
12:00−5wsw2380100 0.3 1021877
15:00−4wnw2374100 0.8 1021873
18:00−4nnw2381100 0.4 1022125
21:00−11nnw119194 0.6 102410